This is the latest recevied weather packets stored in our database for station/object SP9WJ-3. If no packets are shown the sender has not sent any weather packets the latest 10 day(s).
| Time | Temp. | Humidity | Pressure | Rain* | Wind** | Luminosity | Snow |
|---|---|---|---|---|---|---|---|
| 1788177805 | 25.56° C | 43% | 980.8 hPa | - | - | - | - |
| 1788175965 | 25° C | 47% | 980.6 hPa | - | - | - | - |
| 1788175045 | 24.44° C | 52% | 980.6 hPa | - | - | - | - |
| 1788174125 | 24.44° C | 49% | 980.8 hPa | - | - | - | - |
| 1788173205 | 24.44° C | 49% | 980.9 hPa | - | - | - | - |
| 1788172498 | 24.44° C | 50% | 980.9 hPa | - | - | - | - |
| 1788172285 | 24.44° C | 50% | 980.9 hPa | - | - | - | - |
| 1788170445 | 25° C | 47% | 981 hPa | - | - | - | - |
| 1788169525 | 25° C | 48% | 981 hPa | - | - | - | - |
| 1788168604 | 25° C | 49% | 980.9 hPa | - | - | - | - |
| 1788166764 | 25.56° C | 49% | 980.7 hPa | - | - | - | - |
| 1788165843 | 25° C | 50% | 980.7 hPa | - | - | - | - |
| 1788164923 | 25° C | 50% | 980.8 hPa | - | - | - | - |
| 1788164003 | 24.44° C | 50% | 980.6 hPa | - | - | - | - |
| 1788163083 | 24.44° C | 50% | 980.7 hPa | - | - | - | - |
| 1788159404 | 22.22° C | 59% | 980.9 hPa | - | - | - | - |
| 1788156694 | 21.11° C | 60% | 981.1 hPa | - | - | - | - |
| 1788156646 | 21.11° C | 60% | 981.1 hPa | - | - | - | - |
| 1788155799 | 21.11° C | 61% | 981.1 hPa | - | - | - | - |
| 1788155727 | 21.11° C | 61% | 981.1 hPa | - | - | - | - |
| 1788154846 | 21.11° C | 61% | 981.1 hPa | - | - | - | - |
| 1788154808 | 21.11° C | 61% | 981.1 hPa | - | - | - | - |
| 1788153889 | 21.11° C | 61% | 981.2 hPa | - | - | - | - |
| 1788152051 | 21.11° C | 61% | 981.1 hPa | - | - | - | - |
| 1788151132 | 21.11° C | 61% | 981.1 hPa | - | - | - | - |
* Rain since midnight (hover to see other rain measurements)
** Current wind speed in m/s (hover to see current wind gust speed)